• In India
  • List of Countries
  • For 7 days
  • Water Temperature
  • Satellite Maps
  • Weather Map
  • Weather Widgets
  • user-avatar
    Login

    Hourly Weather Yeghegnadzor

    Today, 24 September, Sunday

    Time Temperature Precipitation Wind Pressure Humidity
    00:00 +20°C° 0 mm 2 mps 655 mmHg 56%
    01:00 +19°C° 0 mm 2 mps 655 mmHg 57%
    02:00 +19°C° 0 mm 2 mps 655 mmHg 58%
    03:00 +18°C° 0 mm 2 mps 655 mmHg 59%
    04:00 +18°C° 0 mm 2 mps 655 mmHg 62%
    05:00 +17°C° 0 mm 2 mps 655 mmHg 65%
    06:00 +17°C° 0 mm 2 mps 655 mmHg 67%
    07:00 +19°C° 0 mm 2 mps 656 mmHg 59%
    08:00 +21°C° 0 mm 2 mps 656 mmHg 50%
    09:00 +24°C° 0 mm 2 mps 657 mmHg 41%
    10:00 +25°C° 0 mm 2 mps 657 mmHg 38%
    11:00 +26°C° 0 mm 2 mps 657 mmHg 35%
    12:00 +27°C° 0 mm 2 mps 657 mmHg 31%
    13:00 +27°C° 0.2 mm 2 mps 657 mmHg 31%
    14:00 +27°C° 0.2 mm 2 mps 657 mmHg 30%
    15:00 +27°C° 0.2 mm 2 mps 657 mmHg 30%
    16:00 +26°C° 0.2 mm 2 mps 656 mmHg 36%
    17:00 +24°C° 0.2 mm 2 mps 656 mmHg 41%
    18:00 +23°C° 0.2 mm 1 mps 656 mmHg 47%
    19:00 +21°C° 0.2 mm 2 mps 656 mmHg 53%
    20:00 +20°C° 0.2 mm 2 mps 656 mmHg 58%
    21:00 +19°C° 0.2 mm 2 mps 656 mmHg 63%
    22:00 +19°C° 0 mm 2 mps 656 mmHg 66%
    23:00 +18°C° 0 mm 2 mps 656 mmHg 68%

    Tomorrow, 25 September, Monday

    Time Temperature Precipitation Wind Pressure Humidity
    00:00 +18°C° 0 mm 2 mps 656 mmHg 71%
    01:00 +17°C° 0 mm 2 mps 656 mmHg 72%
    02:00 +17°C° 0 mm 2 mps 656 mmHg 73%
    03:00 +17°C° 0 mm 2 mps 656 mmHg 75%
    04:00 +16°C° 0 mm 2 mps 656 mmHg 75%
    05:00 +16°C° 0 mm 1 mps 656 mmHg 75%
    06:00 +16°C° 0 mm 1 mps 656 mmHg 76%
    07:00 +19°C° 0 mm 1 mps 656 mmHg 66%
    08:00 +21°C° 0 mm 1 mps 657 mmHg 56%
    09:00 +22°C° 0 mm 1 mps 657 mmHg 46%
    10:00 +23°C° 0 mm 2 mps 657 mmHg 41%
    11:00 +25°C° 0 mm 2 mps 657 mmHg 37%
    12:00 +26°C° 0 mm 2 mps 657 mmHg 33%
    13:00 +26°C° 0.1 mm 2 mps 657 mmHg 31%
    14:00 +26°C° 0.1 mm 2 mps 657 mmHg 30%
    15:00 +26°C° 0.1 mm 2 mps 656 mmHg 29%
    16:00 +24°C° 0.1 mm 2 mps 656 mmHg 34%
    17:00 +23°C° 0.1 mm 2 mps 656 mmHg 39%
    18:00 +21°C° 0.1 mm 1 mps 655 mmHg 45%
    19:00 +21°C° 0 mm 1 mps 655 mmHg 49%
    20:00 +19°C° 0 mm 2 mps 656 mmHg 54%
    21:00 +18°C° 0 mm 2 mps 656 mmHg 58%
    22:00 +18°C° 0 mm 2 mps 656 mmHg 60%
    23:00 +17°C° 0 mm 2 mps 656 mmHg 62%

    Day after tomorrow, 26 September, Tuesday

    Time Temperature Precipitation Wind Pressure Humidity
    00:00 +17°C° 0 mm 2 mps 656 mmHg 64%
    01:00 +18°C° 0 mm 1 mps 655 mmHg 64%
    02:00 +16°C° 0 mm 1 mps 655 mmHg 63%
    03:00 +16°C° 0 mm 1 mps 655 mmHg 62%
    04:00 +15°C° 0 mm 1 mps 655 mmHg 61%
    05:00 +15°C° 0 mm 1 mps 655 mmHg 60%
    06:00 +15°C° 0 mm 1 mps 655 mmHg 60%
    07:00 +18°C° 0 mm 1 mps 655 mmHg 52%
    08:00 +20°C° 0 mm 1 mps 656 mmHg 45%
    09:00 +22°C° 0 mm 1 mps 656 mmHg 37%
    10:00 +23°C° 0 mm 2 mps 656 mmHg 34%
    11:00 +24°C° 0 mm 2 mps 656 mmHg 32%
    12:00 +26°C° 0 mm 2 mps 656 mmHg 29%
    13:00 +26°C° 0 mm 2 mps 656 mmHg 28%
    14:00 +26°C° 0 mm 2 mps 656 mmHg 28%
    15:00 +26°C° 0 mm 2 mps 655 mmHg 27%
    16:00 +25°C° 0 mm 2 mps 655 mmHg 33%
    17:00 +23°C° 0 mm 1 mps 655 mmHg 39%
    18:00 +21°C° 0 mm 1 mps 654 mmHg 45%
    19:00 +21°C° 0 mm 1 mps 654 mmHg 48%
    20:00 +19°C° 0 mm 2 mps 655 mmHg 52%
    21:00 +18°C° 0 mm 2 mps 655 mmHg 55%
    22:00 +18°C° 0 mm 2 mps 655 mmHg 56%
    23:00 +18°C° 0 mm 2 mps 654 mmHg 56%

    27 September, Wednesday

    Time Temperature Precipitation Wind Pressure Humidity
    00:00 +17°C° 0 mm 2 mps 654 mmHg 57%
    01:00 +18°C° 0.1 mm 1 mps 654 mmHg 58%
    02:00 +18°C° 0.1 mm 1 mps 654 mmHg 60%
    03:00 +16°C° 0.1 mm 1 mps 654 mmHg 62%
    04:00 +16°C° 0 mm 1 mps 654 mmHg 62%
    05:00 +16°C° 0 mm 1 mps 654 mmHg 62%
    06:00 +15°C° 0 mm 1 mps 653 mmHg 62%
    07:00 +18°C° 0 mm 1 mps 654 mmHg 54%
    08:00 +20°C° 0 mm 2 mps 655 mmHg 46%
    09:00 +23°C° 0 mm 2 mps 655 mmHg 39%
    10:00 +24°C° 0 mm 2 mps 655 mmHg 36%
    11:00 +25°C° 0 mm 3 mps 655 mmHg 34%
    12:00 +26°C° 0 mm 3 mps 655 mmHg 31%
    13:00 +26°C° 0 mm 3 mps 655 mmHg 30%
    14:00 +26°C° 0 mm 3 mps 654 mmHg 30%
    15:00 +26°C° 0 mm 3 mps 654 mmHg 29%
    16:00 +25°C° 0.1 mm 3 mps 654 mmHg 35%
    17:00 +23°C° 0.1 mm 2 mps 654 mmHg 41%
    18:00 +22°C° 0.1 mm 1 mps 654 mmHg 47%
    19:00 +20°C° 0 mm 2 mps 654 mmHg 53%
    20:00 +19°C° 0 mm 2 mps 654 mmHg 59%
    21:00 +18°C° 0 mm 3 mps 654 mmHg 66%
    22:00 +17°C° 0 mm 3 mps 654 mmHg 68%
    23:00 +17°C° 0 mm 2 mps 654 mmHg 70%

    28 September, Thursday

    Time Temperature Precipitation Wind Pressure Humidity
    00:00 +16°C° 0 mm 2 mps 654 mmHg 73%
    01:00 +16°C° 0 mm 2 mps 654 mmHg 73%
    02:00 +15°C° 0 mm 2 mps 654 mmHg 73%
    03:00 +15°C° 0 mm 2 mps 654 mmHg 74%
    04:00 +15°C° 0 mm 2 mps 654 mmHg 74%
    05:00 +14°C° 0 mm 2 mps 654 mmHg 74%
    06:00 +14°C° 0 mm 2 mps 654 mmHg 74%
    07:00 +16°C° 0 mm 2 mps 655 mmHg 65%
    08:00 +18°C° 0 mm 2 mps 655 mmHg 57%
    09:00 +19°C° 0 mm 2 mps 656 mmHg 48%
    10:00 +20°C° 0 mm 2 mps 656 mmHg 45%
    11:00 +21°C° 0 mm 2 mps 656 mmHg 41%
    12:00 +22°C° 0 mm 3 mps 656 mmHg 37%
    13:00 +24°C° 0 mm 3 mps 656 mmHg 37%
    14:00 +24°C° 0 mm 3 mps 656 mmHg 37%
    15:00 +24°C° 0 mm 2 mps 656 mmHg 36%
    16:00 +21°C° 0.1 mm 2 mps 656 mmHg 43%
    17:00 +20°C° 0.1 mm 2 mps 655 mmHg 50%
    18:00 +19°C° 0.1 mm 2 mps 655 mmHg 57%
    19:00 +18°C° 0.1 mm 2 mps 655 mmHg 61%
    20:00 +17°C° 0.1 mm 2 mps 655 mmHg 65%
    21:00 +16°C° 0.1 mm 3 mps 655 mmHg 69%
    22:00 +16°C° 0.1 mm 3 mps 655 mmHg 70%
    23:00 +15°C° 0.1 mm 2 mps 655 mmHg 71%

    29 September, Friday

    Time Temperature Precipitation Wind Pressure Humidity
    00:00 +15°C° 0.1 mm 2 mps 655 mmHg 73%
    01:00 +15°C° 0 mm 2 mps 655 mmHg 73%
    02:00 +14°C° 0 mm 2 mps 655 mmHg 74%
    03:00 +14°C° 0 mm 2 mps 655 mmHg 74%
    04:00 +14°C° 0 mm 2 mps 655 mmHg 74%
    05:00 +13°C° 0 mm 2 mps 655 mmHg 74%
    06:00 +13°C° 0 mm 2 mps 655 mmHg 74%
    07:00 +15°C° 0 mm 2 mps 656 mmHg 66%
    08:00 +17°C° 0 mm 2 mps 656 mmHg 58%
    09:00 +18°C° 0 mm 2 mps 657 mmHg 49%
    10:00 +20°C° 0 mm 2 mps 657 mmHg 46%
    11:00 +21°C° 0 mm 2 mps 657 mmHg 43%
    12:00 +22°C° 0 mm 3 mps 656 mmHg 40%
    13:00 +22°C° 0.1 mm 3 mps 656 mmHg 39%
    14:00 +22°C° 0.1 mm 3 mps 656 mmHg 38%
    15:00 +22°C° 0.1 mm 3 mps 655 mmHg 38%
    16:00 +21°C° 0 mm 2 mps 655 mmHg 44%
    17:00 +20°C° 0 mm 1 mps 655 mmHg 49%
    18:00 +19°C° 0 mm 1 mps 654 mmHg 55%
    19:00 +18°C° 0 mm 1 mps 654 mmHg 59%
    20:00 +17°C° 0 mm 2 mps 655 mmHg 63%
    21:00 +16°C° 0 mm 2 mps 655 mmHg 66%
    22:00 +16°C° 0 mm 2 mps 655 mmHg 67%
    23:00 +15°C° 0 mm 2 mps 654 mmHg 68%
    Show more